Location: Gilevgi
(36.8751°N, 30.0581°E)
Time: 05:10:56
(UTC+00:00)

Cosmos 2227 Rocket - Pass Details

Date: 11 December 2025
Orbit: 838 x 843 km, 71.0° (Epoch: 13 January)

Event Time Altitude Azimuth Distance (km) Brightness Sun altitude
Rises 16:57:45 0° 327° (NNW) 3,398 5.6 -26.1°
Reaches altitude 10° 17:00:26 10° 317° (NW) 2,460 5.0 -26.6°
Maximum altitude 17:05:19 31° 257° (WSW) 1,433 3.9 -27.6°
Drops below altitude 10° 17:10:11 10° 196° (SSW) 2,450 4.9 -28.5°
Sets 17:12:52 0° 187° (S) 3,381 5.5 -29.1°
